User: anonymous   Login
Location: Columbia
(38.9520°N, 92.3340°W)
Time: 03:33:58
(UTC-05:00)
Language:

Iridium 15 - Orbit

View from above orbital plane
View from above orbital plane
View from above satellite
View from above satellite

Ground track
Ground track

The orbit data is extracted from the following two-line orbital elements,

1 24869U 97034A   16209.43926922  .00000157  00000-0  48903-4 0  9998
2 24869  86.3995 157.8684 0002159  79.5617 280.5822 14.34218510997362
Epoch (UTC): 27 July 2016 10:32:32
Eccentricity: 0.0002159
inclination: 86.3995°
perigee height: 776 km
apogee height: 779 km
right ascension of ascending node: 157.8684°
argument of perigee: 79.5617°
revolutions per day: 14.34218510
mean anomaly at epoch: 280.5822°
orbit number at epoch: 99736

The dashed part of the orbit path shows where the satellite is in the earth's shadow,  

DLR